Погода в Стерлитамаке

Погода в Стерлитамаке : погода сейчас, прогноз погоды и архив. Всё, что Вы хотите узнать о погоде в Стерлитамаке!

Хотите узнать прогноз погоды в Стерлитамаке? Тогда Вам сюда: Погода в Стерлитамаке

Поиск расширенной информации на нашем сайте:

Другие новости

Новости СМИ2

Главная страница сайта

Новости сайта

03.07.2017

Напоминаем, что на нашем специализированном сайте Метеоцентр.Азия вы можете получить высокодетализированные автоматические прогнозы погоды по пунктам России, СНГ и мира в авиационном формате (включающие направление и скорость ветра, видимость, явления погоды, количество и форму облачности, нижнюю и верхнюю границу облачности).

Рекомендуем: см тут аренда офиса в бп курский арма завод Нижний Сусальный пер. на выгодных условиях

Погода в Стерлитамаке - сегодня

Время (UTC), дата Ветер
(°,м/с) 
Видим.   Явления Облачность Т
(°С)
Тd
(°С)
f(%) Тe
(°С)
Pmin
(гПа)
dP
(гПа)
Po
(мм)
O2
(г/м3)
Тmin Tmax R s Состояние
почвы
21 16.10.18 200 (Ю) 10 км    10/10 600 м 
[Sc]
+4.1 +1.2 81 +4  1020  -1.7  752  298           
00 17.10.18 210 (ЮЗ) 10 км    10/10 600 м 
[Sc]
+5.2 +2.8 84 +5  1018  -1.9  751  296           
03 17.10.18 210 (ЮЗ) 10 км    10/10 600 м кучево-дожд. 
[Cb cap]
+3.3 +1.2 86 +4  1016.5  -1.6  750  298  +2.3    0.0    влажная 
06 17.10.18 200 (Ю) 20000 м    3/1 1000 м средняя 
[Sc|Ac trans]
+8.3 +4.9 79 +8  1013.9  -2.3  748  292           
09 17.10.18 260 (З) 20000 м    9/0 верхняя 
[Ci fib]
+15.4 +5.7 52 +16  1011  -2.4  746  284           
12 17.10.18 320 (СЗ) 10 км    9/8 600 м кучево-дожд., средняя 
[Cb cap|Ac trans]
+14.1 +3.6 49 +14  1011.2  -0.1  746  285           
15 17.10.18 340 (С) 4{12}  10 км    4/4 600 м кучево-дожд. 
[Cb cap]
+9.8 +4.4 69 +9  1013.8  2.4  748  290    +16.1       
18 17.10.18 010 (С) 3{12}  10 км  {ливн. осадки}  ясно 
+6.3 -0.2 63 +5  1018  3.8  751  296           
21 17.10.18 350 (С) 10 км    6/6 1000 м 
[Sc]
+4.4 -1.1 67 +3  1019.9  1.8  752  298           
00 18.10.18 350 (С) 10 км    1/1 1000 м 
[Sc]
+2.6 -1.4 75 +2  1021.5  1.5  753  301           
03 18.10.18 250 (З) 10 км    1/1 1000 м 
[Sc]
-0.5 -3 83 1022.5  0.8  754  305  -0.5    0.0    замёрзшая 
06 18.10.18 060 (СВ) 10 км    9/9 600 м 
[Sc]
+3.7 -0.4 75 +5  1022.9  0.6  754  300  -0.6         
09 18.10.18 340 (С) 20000 м    8/8 600 м 
[Sc]
+7 -0.4 59 +6  1022.2  -0.5  754  296           
12 18.10.18 020 (С) 20000 м    ясно 
+8.1 -1 53 +8  1021.6  -0.5  754  295           
15 18.10.18 тихо ()   10 км    ясно 
+1.5 -1.2 82 +2  1022.3  0.2  754  302    +8.3       
18 18.10.18 230 (ЮЗ) 10 км    9/0 средняя 
[Ac trans]
-0.5 -2.3 88 1022.1  -0.3  754  304           
21 18.10.18 210 (ЮЗ) 10 км    10/10 1000 м 
[Sc]
+1.9 -1.7 77 +3  1021.5  -0.4  753  302           
00 19.10.18 220 (ЮЗ) 10 км    10/10 1000 м 
[Sc]
+3.6 -0.2 76 +4  1020.4  -1  752  299           
03 19.10.18 240 (ЮЗ) 10 км    10/9 1000 м средняя 
[Sc|Ac und]
+5.5 +0.1 68 +6  1018.9  -1.3  752  297  -1        сухая 
06 19.10.18 230 (ЮЗ) 10 км    9/4 1000 м средняя 
[Sc|Ac trans]
+8.7 +0.8 58 +9  1017.9  -0.8  751  293           
09 19.10.18 280 (З) 20000 м    6/0 средняя 
[Ac trans]
+15.3 +5 50 +16  1016.4  -0.8  750  285           
12 19.10.18 240 (ЮЗ) 20000 м    3/0 средняя, верхняя 
[Ac trans|Ci fib]
+15.1 +4.7 50 +16  1015.5  -1.2  749  285           
15 19.10.18 230 (ЮЗ) 10 км    ясно 
+10.2 +4.5 68 +11  1015.8  749  290    +15.5       
18 19.10.18 тихо ()   10 км    ясно 
+4.4 +2.3 86 +4  1015.9  -0.2  749  297           
21 19.10.18 200 (Ю) 10 км    9/9 600 м 
[Sc]
+7.3 +5 85 +8  1015.4  -0.3  749  293           
Время (UTC), дата Ветер
(°,м/с) 
Видим.   Явления Облачность Т
(°С)
Тd
(°С)
f(%) Тe
(°С)
Pmin
(гПа)
dP
(гПа)
Po
(мм)
O2
(г/м3)
Тmin Tmax R s Состояние
почвы

Для получения пояснительной информации подведите курсор к названию столбца.

ПОГОДА в Стерлитамаке - архив

Всё, что Вы хотите узнать о погоде в Стерлитамаке - удобно и подробно!

Выберите нужную дату (начиная с 1 января 2015* года) и нажмите кнопку "Найти".
Будут отображены архивные сводки погоды по пункту Стерлитамак, начиная с указанной даты.


Отображать данные в формате CSV (для использования в таблицах Excel)


Внимание! Наш архив погоды предназначен исключительно для личного некоммерческого использования в познавательных целях. Если Вам необходимы официальные справки о состоянии погоды (для производственных, юридических, коммерческих и т.п. целей), обращайтесь в органы Росгидромета.

*Примечание: данная дата относится к архиву по метеостанциям СССР (Россия, СНГ, Балтия).
Архив по метеостанциям Зарубежной Европы и Азии (кроме Китая) хранится 10 дней, по другим регионам земного шара (Китай, Африка, Америка, Австралия, Океания) - 1 день.

Стерлитамак - район местоположения метеостанции


Название, широта, долгота, высота метеостанции:
Стерлитамак 53.6°ш. 56°д. 137 м над ур. моря [Российская Федерация]

Дополнительная информация

В oтличие oт бoльшинства пoгoдных сайтoв мы публикуем пoдрoбную метеoинфoрмацию в детальнoм прoфессиoнальнoм фoрмате.

Характеристики температуры и влажнoсти вoздуха измеряются на высoте 2 м в тени вдали oт зданий и деревьев.
Скoрoсть ветра измеряется на высoте 10 м (на урoвне рoста челoвека скoрoсть ветра ниже в 1.5-2 раза). Если метеoстанция нахoдится в гoрoде или в лесу, тo скoрoсть ветра занижена на 2-4 м/с пo сравнению с oткрытым местoм. Скoрoсть ветра над акватoриями крупных рек и oзёр, а также на вершинах хoлмoв на 2-5 м/с выше, чем в oбычных услoвиях.
Атмoсфернoе давление в разных тoчках местнoсти мoжет значительнo oтличаться oт давления на метеoстанции, в зависимoсти oт услoвий рельефа (при пoдъёме на 10 м давление пoнижается примернo на 1 мм рт.ст.).